Starlink 5024

operational
NORAD ID: 53901 Int'l Des: 2022-119 Owner: SPXS Country: US Constellation: starlink
LEOCIRCULAR

关于 Starlink 5024

正在加载描述...

实时位置

正在加载3D地球...

即将过境

高度历史

Altitude vs Time

uPlot chart will show altitude changes over time

两行轨道根数

1 53901U 22119R 25351.33339120 .00209093 00000-0 13099-2 0 9990
2 53901 53.2143 295.1677 0010317 74.9946 96.4626 15.75608655 5945
Epoch: Dec 17, 2025 • Age: 8 hours

当前状态

高度 345.8 km
速度 7.70 km/s
星下点 -2.34°S, 153.9°E
发射日期 Sep 24, 2022
运行时间 3.2 years
类型 internet

技术详情

分类 Payload
质量 305.00 kg
干质量 290.00 kg
总质量 305.00 kg
长度 0.20 m
直径 2.80 m
跨度 9.00 m
形状 Box + pan
制造商 SPXS
平台类型 Starlink
阶段状态 In Orbit
所有者/国家 SPXS/US

大型星座

Loading constellations...